Regional Weather Roundup
Issued by NWS State College, PA

Home | Current Version | Previous Version | Text Only | Print | Product List | Glossary Off
Versions: 1 2 3 4 5 6 7 8 9 10 11 12 13 14 15 16 17 18 19 20 21 22 23 24 25 26 27 28 29 30 31 32 33 34 35 36 37 38 39 40 41 42 43 44 45 46 47 48 49 50

000
ASUS41 KCTP 301510
RWRCTP

REGIONAL WEATHER ROUNDUP
NATIONAL WEATHER SERVICE STATE COLLEGE PA
1000 AM EST FRI JAN 30 2015

Note: "fair" indicates few or no clouds below 12,000 feet with no
significant weather and/or obstructions to visibility.

* = STATION THAT DOES NOT REPORT PRECIPITATION /E.G. RAIN...SNOW...ETC/
    THUNDER OR FOG.

PAZ002>004-007>009-013>016-020>023-029>032-301600-
WESTERN PENNSYLVANIA

CITY           SKY/WX    TMP DP  RH WIND       PRES   REMARKS
ERIE           LGT SNOW  17   9  70 NW13      30.23R WCI   4
MEADVILLE      HVY SNOW  17  11  77 NW14G32   30.15R VSB 1/4 WCI   3
FRANKLIN*      CLOUDY    18  10  73 NW10G23   30.13R WCI   6
NEW CASTLE     LGT SNOW  18  11  74 NW15G25   30.23R WCI   4
BEAVER COUNTY  FLURRIES  19  12  73 NW12G28   30.19R WCI   7
BUTLER*        PTSUNNY   19  10  68 W13G18    30.18R WCI   7
PITTSBURGH INT FLURRIES  21  13  71 NW20G31   30.18R WCI   6
PITTSBURGH     LGT SNOW  21  12  68 NW14G23   30.15R WCI   8
INDIANA*       CLOUDY    23  18  80 NW16      30.12R WCI  10
LATROBE        CLOUDY    23  16  74 NW14G25   30.15R WCI  11
WASHINGTON CO* CLOUDY    23  12  63 NW9G22    30.20R WCI  13
$$

PAZ004>006-010>012-017>019-024>028-033>037-041-042-045-046-049>053-301600-
CENTRAL PENNSYLVANIA

CITY           SKY/WX    TMP DP  RH WIND       PRES   REMARKS
BRADFORD       SNOW      20  14  77 NW16G24   29.96R VSB 1/2 WCI   6
DUBOIS         LGT SNOW  20  15  81 W14       30.02R WCI   7
CLEARFIELD     LGT SNOW  22  16  78 W15G30    30.01R WCI   9
JOHNSTOWN      SNOW      20  15  81 NW20G30   29.99R VSB 1/2 WCI   4
ALTOONA        CLOUDY    36  18  48 NW20G26   30.02R
STATE COLLEGE  CLOUDY    27  21  80 NW17      30.00R WCI  14
WILLIAMSPORT   CLOUDY    32  21  64 NW12      29.97R
SELINSGROVE    CLOUDY    34  22  61 NW10      29.98R
FT INDIANTOWN  CLOUDY    34  23  64 N16       29.96R
CAPITAL CITY   CLOUDY    36  22  56 NW14      29.99R
HARRISBURG     CLOUDY    34  24  67 NW16      29.98R
YORK           CLOUDY    36  23  59 NW10      29.98R
$$

PAZ038>040-043-044-047-048-054-055-060>062-067>071-301600-
EASTERN PENNSYLVANIA

CITY           SKY/WX    TMP DP  RH WIND       PRES   REMARKS
SCRANTON       LGT SNOW  29  24  82 W6        29.90R
MOUNT POCONO   LGT SNOW  26  21  81 NW17G28   29.79S WCI  13
ALLENTOWN      FLURRIES  33  26  75 W9        29.91R
QUAKERTOWN*    CLOUDY    32  27  80 NW8G16    29.91S
READING        PTSUNNY   34  22  61 NW21      29.94R
LANCASTER      PTSUNNY   34  24  67 NW13      29.95R
COATESVILLE    PTSUNNY   36  30  80 NW15      29.93S
POTTSTOWN      CLOUDY    34  26  72 W14G22    29.93R
BLUE BELL      PTSUNNY   34  30  86 W9G16     29.91S
DOYLESTOWN     CLOUDY    32  27  81 NW14G20   29.90S
WILLOW GROVE   NOT AVBL
NORTH PHILA    CLOUDY    36  25  64 NW10      29.94S
PHILADELPHIA   FLURRIES  37  26  64 W17G24    29.94S
$$



USA.gov is the U.S. government's official web portal to all federal, state and local government web resources and services.